TimeEST,TemperatureF,Dew PointF,Humidity,Sea Level PressureIn,VisibilityMPH,Wind Direction,Wind SpeedMPH,Gust SpeedMPH,PrecipitationIn,Events,Conditions,WindDirDegrees,DateUTC
12:53 AM,30.0,19.9,66,30.24,10.0,Calm,Calm,-,N/A,,Scattered Clouds,0,2013-12-14 05:53:00
1:53 AM,30.9,19.9,64,30.21,10.0,Calm,Calm,-,N/A,,Overcast,0,2013-12-14 06:53:00
2:53 AM,33.1,19.0,56,30.21,10.0,Calm,Calm,-,N/A,,Overcast,0,2013-12-14 07:53:00
3:53 AM,34.0,19.0,54,30.19,10.0,Calm,Calm,-,N/A,,Overcast,0,2013-12-14 08:53:00
4:53 AM,35.1,26.1,70,30.17,10.0,South,4.6,-,0.00,,Overcast,180,2013-12-14 09:53:00
5:25 AM,35.6,28.4,75,30.15,10.0,SE,5.8,-,0.00,Snow,Light Snow,140,2013-12-14 10:25:00
5:53 AM,34.0,30.0,85,30.16,3.0,East,5.8,-,0.00,Snow,Light Snow,80,2013-12-14 10:53:00
6:14 AM,33.8,30.2,87,30.14,7.0,East,4.6,-,0.01,Rain,Light Rain,90,2013-12-14 11:14:00
6:22 AM,33.8,30.2,87,30.14,8.0,East,6.9,-,0.01,Rain,Light Rain,100,2013-12-14 11:22:00
6:53 AM,34.0,30.9,89,30.16,9.0,East,3.5,-,0.02,Rain,Light Rain,90,2013-12-14 11:53:00
7:53 AM,34.0,32.0,92,30.15,10.0,Calm,Calm,-,0.01,Rain,Light Rain,0,2013-12-14 12:53:00
8:53 AM,35.1,32.0,89,30.16,4.0,Calm,Calm,-,0.03,Rain,Light Rain,0,2013-12-14 13:53:00
9:53 AM,37.9,35.1,89,30.14,8.0,SSE,5.8,-,0.05,Rain,Light Rain,160,2013-12-14 14:53:00
10:02 AM,39.2,35.6,87,30.12,7.0,SSE,6.9,-,0.00,Rain,Light Rain,160,2013-12-14 15:02:00
10:53 AM,39.9,35.1,83,30.08,10.0,SE,3.5,-,0.01,,Overcast,130,2013-12-14 15:53:00
11:53 AM,39.9,34.0,79,30.01,10.0,ESE,8.1,-,N/A,,Overcast,110,2013-12-14 16:53:00
12:53 PM,41.0,34.0,76,29.95,9.0,ESE,8.1,-,0.01,Rain,Light Rain,120,2013-12-14 17:53:00
1:53 PM,39.0,34.0,82,29.89,6.0,ESE,5.8,-,0.07,Rain,Rain,120,2013-12-14 18:53:00
2:53 PM,39.0,34.0,82,29.82,6.0,East,6.9,-,0.03,Rain,Light Rain,100,2013-12-14 19:53:00
3:53 PM,39.9,35.1,83,29.78,10.0,East,6.9,-,0.05,Rain,Light Rain,100,2013-12-14 20:53:00
4:53 PM,41.0,36.0,82,29.77,10.0,ESE,5.8,-,0.03,,Overcast,120,2013-12-14 21:53:00
5:53 PM,39.9,37.0,89,29.76,10.0,Calm,Calm,-,0.00,,Overcast,0,2013-12-14 22:53:00
6:40 PM,39.2,35.6,87,29.73,0.8,Calm,Calm,-,0.00,,Overcast,0,2013-12-14 23:40:00
6:50 PM,39.2,37.4,93,29.73,2.0,Calm,Calm,-,0.00,,Overcast,0,2013-12-14 23:50:00
6:53 PM,39.0,37.0,93,29.74,5.0,Calm,Calm,-,0.00,,Overcast,0,2013-12-14 23:53:00
7:53 PM,39.0,37.9,96,29.73,5.0,Calm,Calm,-,N/A,,Overcast,0,2013-12-15 00:53:00
8:50 PM,39.2,37.4,93,29.70,9.0,Calm,Calm,-,0.00,,Overcast,0,2013-12-15 01:50:00
8:53 PM,39.9,37.9,93,29.70,7.0,Calm,Calm,-,0.00,,Overcast,0,2013-12-15 01:53:00
9:53 PM,39.9,37.9,93,29.68,10.0,Calm,Calm,-,N/A,,Overcast,0,2013-12-15 02:53:00
10:53 PM,44.1,41.0,89,29.69,8.0,WSW,4.6,-,0.01,Rain,Light Rain,240,2013-12-15 03:53:00
11:17 PM,44.6,41.0,87,29.69,10.0,WSW,5.8,-,0.00,,Overcast,240,2013-12-15 04:17:00
11:38 PM,44.6,41.0,87,29.69,10.0,WSW,8.1,-,0.00,Rain,Light Rain,240,2013-12-15 04:38:00
11:53 PM,44.1,41.0,89,29.69,8.0,WSW,8.1,-,0.00,Rain,Light Rain,240,2013-12-15 04:53:00